Wind_Speed
17 14 13 11 10 9 11 13 16 18 20 21 22 22 22 21 21 20 20 19 20 20
16 14 13 12 11 12 15 17 19 21 22 23 23 23 24 24 23 22 21 21 20 21
15 14 13 13 14 16 19 21 22 22 23 24 25 26 25 25 23 23 23 23 24 23
15 14 15 16 17 20 21 22 23 23 24 25 24 24 23 23 22 24 24 24 23 23
16 17 18 18 20 21 22 22 23 23 23 23 22 22 22 23 23 23 23 22 22 23
18 18 18 19 21 22 23 22 22 22 22 23 23 23 24 24 25 25 24 23 22 21
20 20 21 22 23 23 23 24 24 24 25 25 25 26 26 25 25 24 23 23 22 22
23 24 26 26 25 25 26 25 24 24 26 26 26 24 23 22 22 22 22 22 23 23
29 30 30 29 28 27 26 26 26 26 26 27 24 21 22 22 24 25 26 28 28 27
32 32 32 31 31 31 31 29 29 28 27 27 26 24 24 24 26 28 29 29 29 29
35 35 34 35 35 35 34 33 31 29 28 27 27 25 25 26 28 31 31 31 30 31
38 37 37 36 37 36 35 36 35 29 28 29 29 26 26 26 28 31 31 29 30 31
39 38 37 36 36 35 35 37 35 30 29 29 31 28 27 27 30 33 33 32 33 31
36 36 36 36 36 36 36 36 37 37 35 33 30 30 28 28 30 33 35 36 35 34
Wind_Direction
206 209 215 224 237 259 276 285 291 294 295 296 297 296 295 293 292 290 288 284 284 284
215 221 229 241 256 270 279 283 286 288 288 289 289 289 288 289 288 284 283 282 281 280
226 235 247 260 271 279 283 284 285 286 286 285 285 285 284 284 284 281 281 281 280 278
244 257 268 276 281 284 284 285 285 284 284 284 284 284 283 282 281 281 282 281 280 277
259 270 276 280 282 283 283 283 283 284 283 281 281 283 284 283 283 282 281 280 279 276
267 273 277 280 282 282 282 283 284 283 283 284 284 282 281 282 281 280 279 279 276 275
272 276 278 278 279 280 284 284 283 282 280 280 282 281 281 279 278 277 277 275 273 272
276 278 278 280 281 282 282 281 279 278 280 280 279 278 276 275 275 276 276 276 275 274
276 277 278 279 279 279 277 277 278 276 277 277 274 270 270 272 275 274 273 273 274 272
274 276 277 279 279 278 276 275 274 273 273 271 271 270 270 271 272 273 273 273 272 272
272 276 277 276 275 275 274 272 272 271 267 267 267 268 270 272 272 272 271 271 271 271
271 275 275 272 271 271 270 270 270 269 264 262 265 267 269 270 271 270 271 270 270 269
271 272 272 271 270 270 267 269 269 265 260 261 265 265 266 267 268 269 268 270 271 270
270 270 271 271 268 268 268 267 267 267 265 262 260 263 264 263 264 266 268 271 273 271
Height
1528 1530 1532 1534 1536 1537 1538 1539 1540 1540 1540 1541 1540 1540 1539 1539 1539 1539 1538 1537 1536 1535
1525 1527 1528 1530 1532 1533 1534 1534 1535 1535 1536 1536 1535 1535 1535 1534 1533 1533 1532 1530 1529 1528
1522 1523 1525 1526 1527 1528 1528 1529 1529 1529 1529 1529 1529 1529 1528 1527 1526 1526 1525 1523 1522 1522
1518 1519 1520 1521 1521 1522 1522 1522 1522 1522 1522 1522 1522 1522 1521 1520 1518 1518 1517 1517 1515 1515
1513 1514 1514 1515 1515 1515 1515 1515 1515 1515 1514 1515 1514 1514 1513 1512 1512 1511 1509 1509 1509 1507
1508 1508 1509 1509 1509 1509 1508 1508 1508 1508 1507 1507 1507 1506 1506 1504 1504 1504 1502 1501 1502 1500
1503 1503 1503 1502 1501 1501 1501 1501 1501 1501 1500 1500 1499 1498 1498 1498 1497 1496 1495 1495 1494 1493
1496 1496 1496 1495 1494 1494 1494 1494 1493 1493 1492 1491 1491 1491 1491 1491 1490 1489 1488 1488 1487 1487
1489 1489 1488 1488 1487 1487 1487 1486 1486 1485 1485 1484 1484 1485 1485 1485 1483 1482 1481 1480 1479 1479
1481 1480 1480 1479 1479 1479 1478 1478 1478 1477 1477 1476 1476 1477 1478 1478 1476 1474 1472 1472 1471 1470
1472 1471 1471 1470 1470 1470 1470 1469 1469 1469 1469 1468 1467 1468 1469 1470 1468 1465 1464 1463 1462 1461
1463 1462 1462 1460 1460 1460 1460 1460 1459 1460 1460 1459 1458 1460 1460 1461 1459 1457 1455 1455 1454 1453
1453 1451 1450 1450 1450 1450 1450 1449 1450 1450 1450 1449 1449 1450 1451 1453 1451 1448 1447 1446 1444 1444
1441 1440 1439 1439 1439 1439 1440 1440 1439 1439 1440 1439 1440 1439 1441 1442 1442 1440 1438 1436 1434 1433